Location: Unnamed
(48.6007°N, 2.4808°E)
Time: 09:27:42
(UTC+02:00)

PCSat - Pass Details

Date: 31 March 2023
Orbit: 783 x 794 km, 67.1° (Epoch: 29 May)

Event Time Altitude Azimuth Distance (km) Brightness Sun altitude
Rises 22:09:07 0° 317° (NW) 3,297 14.2 -18.0°
Reaches altitude 10° 22:13:35 10° 351° (N) 2,369 12.6 -18.7°
Maximum altitude 22:15:14 11° 9° (N) 2,280 12.2 -18.9°
Drops below altitude 10° 22:16:54 10° 27° (NNE) 2,370 12.1 -19.2°
Enters shadow 22:20:09 - 54° (NE) 2,975 12.3 -19.6°
